TimeCST,TemperatureF,Dew PointF,Humidity,Sea Level PressureIn,VisibilityMPH,Wind Direction,Wind SpeedMPH,Gust SpeedMPH,PrecipitationIn,Events,Conditions,WindDirDegrees,DateUTC
12:15 AM,30.0,20.8,69,30.09,10.0,South,5.8,-,N/A,,Clear,170,2012-12-14 06:15:00
12:35 AM,30.7,20.8,67,30.08,10.0,SSE,5.8,-,N/A,,Clear,160,2012-12-14 06:35:00
12:55 AM,30.7,20.8,67,30.08,10.0,SSE,4.6,-,N/A,,Clear,160,2012-12-14 06:55:00
1:15 AM,30.2,21.0,69,30.08,10.0,SSE,5.8,-,N/A,,Clear,150,2012-12-14 07:15:00
1:35 AM,31.3,21.2,66,30.08,10.0,SSE,4.6,-,N/A,,Clear,150,2012-12-14 07:35:00
1:55 AM,30.9,20.8,66,30.07,10.0,SSE,4.6,-,N/A,,Clear,150,2012-12-14 07:55:00
2:15 AM,30.2,20.8,68,30.07,10.0,SSE,6.9,-,N/A,,Clear,150,2012-12-14 08:15:00
2:35 AM,30.2,21.0,69,30.08,10.0,SSE,6.9,-,N/A,,Clear,150,2012-12-14 08:35:00
2:55 AM,30.7,21.4,68,30.09,10.0,SSE,6.9,-,N/A,,Clear,160,2012-12-14 08:55:00
3:15 AM,29.5,21.0,71,30.07,10.0,SSE,6.9,-,N/A,,Clear,150,2012-12-14 09:15:00
3:35 AM,30.0,21.6,71,30.06,10.0,SSE,8.1,-,N/A,,Clear,150,2012-12-14 09:35:00
3:55 AM,30.2,22.1,72,30.06,10.0,SSE,5.8,-,N/A,,Clear,150,2012-12-14 09:55:00
4:15 AM,30.2,22.1,72,30.06,10.0,SSE,8.1,-,N/A,,Clear,160,2012-12-14 10:15:00
4:35 AM,32.0,23.0,69,30.05,10.0,SSE,8.1,-,N/A,,Clear,160,2012-12-14 10:35:00
4:55 AM,32.0,23.2,70,30.05,10.0,SSE,9.2,-,N/A,,Clear,160,2012-12-14 10:55:00
5:15 AM,32.0,23.0,69,30.05,10.0,SSE,8.1,-,N/A,,Clear,150,2012-12-14 11:15:00
5:35 AM,30.0,22.5,73,30.04,10.0,SSE,6.9,-,N/A,,Clear,150,2012-12-14 11:35:00
5:55 AM,29.7,22.8,76,30.04,10.0,SSE,6.9,-,N/A,,Clear,150,2012-12-14 11:55:00
6:15 AM,31.1,23.2,72,30.04,10.0,SSE,8.1,-,N/A,,Clear,160,2012-12-14 12:15:00
6:35 AM,31.1,23.4,73,30.05,10.0,SSE,8.1,-,N/A,,Clear,160,2012-12-14 12:35:00
6:55 AM,31.3,23.5,73,30.05,10.0,SSE,8.1,-,N/A,,Clear,160,2012-12-14 12:55:00
7:15 AM,32.0,23.9,72,30.06,10.0,SSE,6.9,-,N/A,,Clear,150,2012-12-14 13:15:00
7:35 AM,31.5,23.9,74,30.05,10.0,SSE,6.9,-,N/A,,Clear,150,2012-12-14 13:35:00
7:55 AM,32.0,24.3,73,30.04,10.0,SSE,6.9,-,N/A,,Clear,150,2012-12-14 13:55:00
8:15 AM,32.4,24.8,74,30.04,10.0,SSE,8.1,-,N/A,,Clear,150,2012-12-14 14:15:00
8:35 AM,35.1,25.9,69,30.03,10.0,SSE,9.2,-,N/A,,Clear,160,2012-12-14 14:35:00
8:55 AM,37.2,26.4,65,30.04,10.0,South,11.5,-,N/A,,Clear,170,2012-12-14 14:55:00
9:15 AM,39.4,26.4,60,30.04,10.0,South,10.4,-,N/A,,Clear,170,2012-12-14 15:15:00
9:35 AM,41.2,26.4,56,30.03,10.0,South,9.2,-,N/A,,Clear,170,2012-12-14 15:35:00
9:55 AM,43.7,26.6,51,30.03,10.0,South,8.1,-,N/A,,Clear,170,2012-12-14 15:55:00
10:15 AM,44.8,27.0,50,30.03,10.0,South,9.2,-,N/A,,Clear,180,2012-12-14 16:15:00
10:35 AM,46.9,26.6,45,30.02,10.0,South,9.2,-,N/A,,Clear,170,2012-12-14 16:35:00
10:55 AM,48.2,25.9,42,30.01,10.0,South,11.5,-,N/A,,Clear,180,2012-12-14 16:55:00
11:15 AM,49.1,26.2,41,30.01,10.0,South,10.4,-,N/A,,Clear,170,2012-12-14 17:15:00
11:35 AM,50.0,26.6,40,30.00,10.0,South,10.4,-,N/A,,Clear,190,2012-12-14 17:35:00
11:55 AM,51.4,27.0,39,29.98,10.0,South,8.1,-,N/A,,Clear,170,2012-12-14 17:55:00
12:15 PM,51.1,27.5,40,29.96,10.0,South,9.2,-,N/A,,Clear,170,2012-12-14 18:15:00
12:35 PM,52.2,28.0,39,29.96,10.0,South,11.5,-,N/A,,Clear,170,2012-12-14 18:35:00
1:15 PM,52.7,29.3,41,29.94,10.0,South,10.4,-,N/A,,Clear,170,2012-12-14 19:15:00
1:35 PM,53.6,30.2,41,29.93,10.0,South,12.7,-,N/A,,Clear,170,2012-12-14 19:35:00
1:55 PM,53.1,30.6,42,29.92,10.0,SSE,10.4,-,N/A,,Clear,160,2012-12-14 19:55:00
2:15 PM,52.0,30.0,43,29.91,10.0,SE,11.5,-,N/A,,Clear,140,2012-12-14 20:15:00
2:35 PM,51.6,30.2,44,29.89,10.0,SE,11.5,-,N/A,,Clear,140,2012-12-14 20:35:00
2:55 PM,51.3,30.9,46,29.89,10.0,SSE,11.5,-,N/A,,Clear,150,2012-12-14 20:55:00
3:15 PM,51.8,31.3,46,29.88,10.0,SSE,11.5,17.3,N/A,,Clear,150,2012-12-14 21:15:00
3:35 PM,51.8,32.0,47,29.88,10.0,SE,13.8,-,N/A,,Clear,140,2012-12-14 21:35:00
4:15 PM,50.7,32.0,49,29.88,10.0,SE,16.1,-,N/A,,Scattered Clouds,140,2012-12-14 22:15:00
4:35 PM,50.0,31.6,49,29.88,10.0,SE,13.8,-,N/A,,Overcast,140,2012-12-14 22:35:00
4:55 PM,49.5,31.5,50,29.87,10.0,SSE,12.7,-,N/A,,Overcast,150,2012-12-14 22:55:00
5:15 PM,49.6,31.1,49,29.87,10.0,SE,12.7,17.3,N/A,,Overcast,140,2012-12-14 23:15:00
5:35 PM,49.6,31.1,49,29.86,10.0,SSE,13.8,-,N/A,,Overcast,150,2012-12-14 23:35:00
5:55 PM,49.6,30.6,48,29.86,10.0,SSE,11.5,-,N/A,,Overcast,150,2012-12-14 23:55:00
6:15 PM,49.5,30.2,48,29.86,10.0,SSE,10.4,-,N/A,,Overcast,160,2012-12-15 00:15:00
6:35 PM,49.8,30.2,47,29.86,10.0,SSE,9.2,-,N/A,,Overcast,150,2012-12-15 00:35:00
6:55 PM,49.6,30.2,47,29.86,10.0,SSE,10.4,-,N/A,,Overcast,150,2012-12-15 00:55:00
7:15 PM,50.2,32.0,50,29.86,10.0,SSE,13.8,19.6,N/A,,Overcast,160,2012-12-15 01:15:00
7:35 PM,50.5,32.0,49,29.85,10.0,SSE,15.0,-,N/A,,Overcast,160,2012-12-15 01:35:00
7:55 PM,50.4,33.8,53,29.85,10.0,South,15.0,20.7,N/A,,Overcast,170,2012-12-15 01:55:00
8:35 PM,50.2,32.5,51,29.84,10.0,SSE,10.4,-,N/A,,Overcast,160,2012-12-15 02:35:00
8:55 PM,50.4,32.0,49,29.83,10.0,SSE,11.5,-,N/A,,Overcast,160,2012-12-15 02:55:00
9:15 PM,50.0,32.0,50,29.82,10.0,SSE,11.5,-,N/A,,Overcast,150,2012-12-15 03:15:00
9:35 PM,49.5,32.4,52,29.81,10.0,SE,11.5,-,N/A,,Overcast,140,2012-12-15 03:35:00
9:55 PM,49.3,33.8,55,29.79,10.0,SE,13.8,20.7,N/A,,Overcast,140,2012-12-15 03:55:00
10:15 PM,48.9,35.1,59,29.79,10.0,SE,16.1,20.7,N/A,,Overcast,140,2012-12-15 04:15:00
10:35 PM,48.2,35.8,62,29.77,10.0,SE,15.0,25.3,N/A,,Overcast,140,2012-12-15 04:35:00
10:55 PM,47.3,37.4,68,29.76,10.0,SE,17.3,23.0,N/A,,Overcast,140,2012-12-15 04:55:00
11:15 PM,45.5,39.4,79,29.76,10.0,SE,20.7,25.3,N/A,Rain,Light Rain,140,2012-12-15 05:15:00
11:35 PM,43.9,40.1,87,29.73,10.0,SE,13.8,-,N/A,,Overcast,130,2012-12-15 05:35:00